Weather History for Erzurum, Turkey

Change the Weather History Date:

Sunday, January 20, 2013

  Actual Average Record
Temperature  
Mean Temperature 24 °F -  
Max Temperature 31 °F 28 °F 35 °F (1999)
Min Temperature 17 °F 12 °F -20 °F (2012)
Degree Days  
Heating Degree Days 41    
Moisture  
Dew Point 21 °F    
Average Humidity 80    
Maximum Humidity 93    
Minimum Humidity 49    
Precipitation  
Precipitation 0.00 in 0.03 in - ()
Sea Level Pressure  
Sea Level Pressure 29.99 in    
Wind  
Wind Speed 9 mph ()    
Max Wind Speed 18 mph    
Max Gust Speed 22 mph    
Visibility 6.6 miles    
Events      
Averages and records for this station are not official NWS values.
T = Trace of Precipitation, MM = Missing Value Source: Averaged Metar Reports

Daily Weather History Graph

Daily Weather History Graph

Search for Another Location

Airport:

Trip Planner

Search our weather history database for the weather conditions in past years. The results will help you decide how hot, cold, wet, or windy it might be!

Date:

Astronomy

Jan. 20, 2013 Rise Set
Actual Time 6:32 AM EET 4:20 PM EET
Civil Twilight 6:03 AM EET 4:49 PM EET
Nautical Twilight 5:30 AM EET 5:22 PM EET
Astronomical Twilight 4:58 AM EET 5:55 PM EET
Moon 11:08 AM EET (1/20) 12:44 AM EET (1/20)
Length of Visible Light 10h 46m
Length of Day
9h 47m
Waxing Gibbous, 63% of the Moon is Illuminated
Jan 20
Waxing Gibbous
Jan 27
Full
Feb 3
Last Quarter
Feb 10
New
Feb 17
First Quarter

Hourly Weather History & Observations

Time (EET) Temp. Windchill Dew Point Humidity Pressure Visibility Wind Dir Wind Speed Gust Speed Precip Events Conditions
12:20 AM 26.6 °F 22.6 °F 15.8 °F 64% 29.95 in 6.2 mi Variable 3.5 mph - N/A   Scattered Clouds
12:50 AM 28.4 °F 21.2 °F 17.6 °F 64% 29.95 in 6.2 mi Variable 6.9 mph - N/A   Scattered Clouds
1:20 AM 30.2 °F 25.4 °F 15.8 °F 55% 29.95 in 6.2 mi West 4.6 mph - N/A   Scattered Clouds
1:50 AM 30.2 °F 23.4 °F 17.6 °F 60% 29.95 in 6.2 mi West 6.9 mph - N/A   Scattered Clouds
2:00 AM 29 °F - 17 °F 49%  in 12 mi West 6.9 mph - -   Partly Cloudy
2:20 AM 32.0 °F 26.4 °F 17.6 °F 55% 29.95 in 6.2 mi WNW 5.8 mph - N/A   Mostly Cloudy
2:50 AM 30.2 °F 20.2 °F 19.4 °F 64% 29.95 in 6.2 mi West 12.7 mph - N/A   Mostly Cloudy
3:20 AM 30.2 °F 18.1 °F 23.0 °F 75% 29.95 in 6.2 mi WSW 18.4 mph - N/A   Mostly Cloudy
3:50 AM 28.4 °F 17.0 °F 23.0 °F 80% 29.92 in 6.2 mi West 15.0 mph - N/A   Mostly Cloudy
4:20 AM 26.6 °F 16.2 °F 23.0 °F 86% 29.95 in 6.2 mi WNW 11.5 mph - N/A   Mostly Cloudy
4:50 AM 28.4 °F 19.1 °F 23.0 °F 80% 29.92 in 6.2 mi NW 10.4 mph 21.9 mph N/A   Mostly Cloudy
5:20 AM 26.6 °F 18.2 °F 23.0 °F 86% 29.95 in 6.2 mi West 8.1 mph - N/A   Mostly Cloudy
5:50 AM 26.6 °F 16.8 °F 23.0 °F 86% 29.95 in 6.2 mi NW 10.4 mph - N/A   Mostly Cloudy
6:20 AM 26.6 °F 19.1 °F 23.0 °F 86% 29.95 in 6.2 mi WSW 6.9 mph - N/A   Mostly Cloudy
6:50 AM 26.6 °F 18.2 °F 23.0 °F 86% 29.98 in 6.2 mi WNW 8.1 mph - N/A   Mostly Cloudy
7:20 AM 24.8 °F 15.3 °F 23.0 °F 93% 29.98 in 6.2 mi West 9.2 mph - N/A   Scattered Clouds
7:50 AM 26.6 °F 18.2 °F 23.0 °F 86% 29.98 in 6.2 mi West 8.1 mph - N/A   Scattered Clouds
8:00 AM 26 °F - 24 °F 88%  in 12 mi West 8.1 mph - -   Partly Cloudy
8:20 AM 26.6 °F 19.1 °F 24.8 °F 93% 29.98 in 6.2 mi West 6.9 mph - N/A   Scattered Clouds
8:50 AM 26.6 °F 19.1 °F 23.0 °F 86% 29.98 in 6.2 mi West 6.9 mph - N/A   Scattered Clouds
9:20 AM 28.4 °F 19.1 °F 24.8 °F 86% 29.98 in 6.2 mi West 10.4 mph - N/A   Scattered Clouds
9:50 AM 28.4 °F 16.6 °F 24.8 °F 86% 29.98 in 6.2 mi West 16.1 mph - N/A   Scattered Clouds
10:20 AM 30.2 °F 19.8 °F 24.8 °F 80% 29.98 in 6.2 mi West 13.8 mph - N/A   Mostly Cloudy
10:50 AM 30.2 °F 19.8 °F 24.8 °F 80% 29.98 in 6.2 mi West 13.8 mph - N/A   Mostly Cloudy
11:20 AM 30.2 °F 19.8 °F 24.8 °F 80% 29.98 in 6.2 mi West 13.8 mph - N/A   Scattered Clouds
11:50 AM 30.2 °F 20.2 °F 24.8 °F 80% 29.98 in 6.2 mi West 12.7 mph - N/A   Scattered Clouds
12:20 PM 30.2 °F 20.2 °F 24.8 °F 80% 29.98 in 6.2 mi West 12.7 mph - N/A   Scattered Clouds
12:50 PM 32.0 °F 23.0 °F 24.8 °F 75% 29.98 in 6.2 mi West 11.5 mph - N/A   Scattered Clouds
1:20 PM 30.2 °F 19.3 °F 24.8 °F 80% 29.98 in 6.2 mi West 15.0 mph - N/A   Scattered Clouds
1:50 PM 30.2 °F 20.2 °F 24.8 °F 80% 29.98 in 6.2 mi West 12.7 mph - N/A   Scattered Clouds
2:00 PM 31 °F - 24 °F 67%  in 12 mi West 12.7 mph - -   Partly Cloudy
2:20 PM 30.2 °F 20.2 °F 24.8 °F 80% 29.98 in 6.2 mi West 12.7 mph - N/A   Scattered Clouds
2:50 PM 28.4 °F 17.5 °F 24.8 °F 86% 29.98 in 6.2 mi West 13.8 mph - N/A   Scattered Clouds
3:20 PM 28.4 °F 18.5 °F 23.0 °F 80% 30.01 in 6.2 mi WSW 11.5 mph - N/A   Scattered Clouds
3:50 PM 28.4 °F 19.1 °F 21.2 °F 74% 30.01 in 6.2 mi WSW 10.4 mph - N/A   Scattered Clouds
4:20 PM 26.6 °F 16.2 °F 21.2 °F 80% 30.01 in 6.2 mi West 11.5 mph - N/A   Scattered Clouds
4:50 PM 24.8 °F 14.0 °F 21.2 °F 86% 29.98 in 6.2 mi West 11.5 mph - N/A   Scattered Clouds
5:20 PM 24.8 °F 14.0 °F 21.2 °F 86% 30.01 in 6.2 mi West 11.5 mph - N/A   Scattered Clouds
5:50 PM 24.8 °F 14.6 °F 21.2 °F 86% 30.01 in 6.2 mi West 10.4 mph - N/A   Scattered Clouds
6:20 PM 23.0 °F 13.9 °F 19.4 °F 86% 30.01 in 6.2 mi WSW 8.1 mph - N/A   Scattered Clouds
6:50 PM 23.0 °F 14.7 °F 19.4 °F 86% 30.01 in 6.2 mi West 6.9 mph - N/A   Scattered Clouds
7:20 PM 21.2 °F 12.6 °F 17.6 °F 86% 30.01 in 6.2 mi WSW 6.9 mph - N/A   Scattered Clouds
7:50 PM 23.0 °F 12.4 °F 17.6 °F 80% 30.04 in 6.2 mi WSW 10.4 mph - N/A   Scattered Clouds
8:00 PM 22 °F - 19 °F 82%  in 12 mi WSW 9.2 mph - -   Partly Cloudy
8:20 PM 21.2 °F 12.6 °F 15.8 °F 80% 30.01 in 6.2 mi WSW 6.9 mph - N/A   Scattered Clouds
8:50 PM 19.4 °F 10.4 °F 15.8 °F 86% 30.04 in 6.2 mi WSW 6.9 mph - N/A   Scattered Clouds
9:20 PM 19.4 °F 7.9 °F 15.8 °F 86% 30.04 in 6.2 mi West 10.4 mph - N/A   Scattered Clouds
9:50 PM 17.6 °F 6.4 °F 14.0 °F 86% 30.04 in 6.2 mi West 9.2 mph - N/A   Scattered Clouds
10:20 PM 17.6 °F 5.7 °F 14.0 °F 86% 30.04 in 6.2 mi WSW 10.4 mph - N/A   Scattered Clouds
10:50 PM 17.6 °F 7.3 °F 14.0 °F 86% 30.04 in 6.2 mi West 8.1 mph - N/A   Scattered Clouds
11:20 PM 23.0 °F 11.7 °F 17.6 °F 80% 30.04 in 6.2 mi West 11.5 mph - N/A   Scattered Clouds
11:50 PM 24.8 °F 14.0 °F 19.4 °F 80% 30.04 in 6.2 mi WSW 11.5 mph - N/A   Scattered Clouds